FW2458 Weather Reports


Display with metric or nautical units.
time (UTC)temp
F
wind
direction
speed
MPH
gust
MPH
rain 1hr
in
rain 24hr
in
rain mn
in
humidity
%
barometer
mb
20260904014246 76 202 0.0 1.0 0.00 0.37 0.37 90 1013.0
20260904013958 76 202 0.0 1.0 0.00 0.37 0.37 90 1013.1
20260904013230 76 202 0.0 1.0 0.00 0.37 0.37 90 1013.2
20260904012956 76 202 0.0 1.0 0.00 0.37 0.37 90 1013.2
20260904012218 76 202 0.0 1.0 0.00 0.37 0.37 91 1013.2
20260904011709 76 202 0.0 1.0 0.00 0.37 0.37 91 1013.0
20260904011204 76 202 0.0 1.0 0.00 0.37 0.37 91 1012.8
20260904010656 76 202 0.0 1.0 0.00 0.37 0.37 91 1012.9
20260904010146 76 202 0.0 1.0 0.00 0.37 0.37 91 1012.9
20260904005639 76 202 0.0 1.0 0.00 0.37 0.37 91 1012.9
20260904005137 77 202 0.0 1.0 0.00 0.37 0.37 91 1012.8
20260904004624 77 202 0.0 0.0 0.00 0.37 0.37 91 1012.7
20260904004345 77 202 0.0 0.0 0.00 0.37 0.37 91 1012.8
20260904003840 77 202 0.0 0.0 0.00 0.37 0.37 91 1012.8
20260904003546 77 202 0.0 0.0 0.00 0.37 0.37 91 1012.6
20260904002556 77 202 0.0 0.0 0.00 0.37 0.37 90 1012.6
20260904002050 77 202 0.0 0.0 0.00 0.37 0.37 90 1012.5
20260904001805 77 202 0.0 0.0 0.00 0.38 0.37 90 1012.5
20260904001035 78 202 0.0 0.0 0.00 0.38 0.37 90 1012.6
20260904000528 78 202 0.0 0.0 0.00 0.38 0.37 90 1012.7
20260904000018 78 202 0.0 0.0 0.00 0.38 0.37 89 1012.7
20260903235512 78 202 0.0 0.0 0.00 0.38 0.37 88 1012.6
20260903235006 78 202 0.0 0.0 0.00 0.38 0.37 87 1012.4
20260903234456 78 202 0.0 0.0 0.00 0.38 0.37 87 1012.4
20260903233950 78 202 0.0 0.0 0.00 0.38 0.37 86 1012.3
20260903233445 79 202 0.0 0.0 0.00 0.38 0.37 86 1012.2
20260903232934 79 202 0.0 0.0 0.00 0.38 0.37 85 1012.3
20260903232428 80 202 0.0 0.0 0.00 0.38 0.37 85 1012.3
20260903231922 80 202 0.0 0.0 0.00 0.38 0.37 85 1012.2
20260903231413 80 202 0.0 0.0 0.00 0.38 0.37 85 1012.1
20260903230906 80 202 0.0 0.0 0.00 0.38 0.37 85 1012.1
20260903230414 80 202 0.0 0.0 0.00 0.38 0.37 84 1012.2
20260903225850 80 202 0.0 0.0 0.00 0.38 0.37 84 1012.2
20260903225344 81 202 0.0 0.0 0.00 0.38 0.37 83 1012.3
20260903224839 81 202 0.0 0.0 0.00 0.38 0.37 83 1012.1
20260903224330 81 202 0.0 0.0 0.00 0.38 0.37 83 1012.2
20260903223822 81 202 0.0 0.0 0.00 0.38 0.37 83 1012.2
20260903223316 81 202 0.0 0.0 0.00 0.38 0.37 82 1012.2
20260903223030 81 202 0.0 0.0 0.00 0.38 0.37 81 1012.3
20260903222306 81 202 0.0 0.0 0.00 0.38 0.37 81 1012.3
20260903221802 82 202 0.0 0.0 0.00 0.38 0.37 80 1012.4
20260903221300 82 202 0.0 0.0 0.00 0.38 0.37 81 1012.4
20260903220801 82 202 0.0 0.0 0.00 0.38 0.37 80 1012.3
20260903220301 82 202 0.0 0.0 0.00 0.38 0.37 79 1012.4
20260903215801 82 202 0.0 0.0 0.00 0.38 0.37 79 1012.5
20260903215258 82 202 0.0 0.0 0.00 0.38 0.37 80 1012.2
20260903215018 82 202 0.0 0.0 0.00 0.38 0.37 80 1012.1
20260903214524 83 202 0.0 0.0 0.00 0.38 0.37 79 1012.1
20260903214017 83 202 0.0 0.0 0.00 0.38 0.37 77 1012.1
20260903213254 83 202 0.0 0.0 0.00 0.38 0.37 77 1012.0
20260903212754 84 202 0.0 0.0 0.00 0.38 0.37 77 1012.1
20260903212253 84 202 0.0 0.0 0.00 0.38 0.37 75 1012.1
20260903212013 84 202 0.0 2.0 0.00 0.38 0.37 74 1012.1
20260903211255 85 202 0.0 2.0 0.00 0.38 0.37 72 1012.1
20260903210749 85 202 0.0 3.0 0.00 0.38 0.37 71 1012.1
20260903210244 85 202 0.0 3.0 0.00 0.38 0.37 71 1012.2
20260903205739 85 202 0.0 3.0 0.00 0.38 0.37 73 1012.3
20260903205235 85 202 0.0 3.0 0.00 0.38 0.37 73 1012.1
20260903205000 84 202 0.0 3.0 0.00 0.38 0.37 73 1012.1
20260903204238 84 200 0.0 0.0 0.00 0.38 0.37 77 1012.2
20260903203735 84 200 0.0 1.0 0.00 0.38 0.37 75 1012.1
20260903203232 84 200 0.0 1.0 0.00 0.38 0.37 73 1012.1
20260903202731 84 200 0.0 1.0 0.00 0.38 0.37 72 1012.3
20260903202228 84 200 0.0 2.0 0.00 0.38 0.37 75 1012.3
20260903201725 85 200 0.0 2.0 0.00 0.38 0.37 74 1012.2
20260903201226 85 200 0.0 4.0 0.00 0.38 0.37 71 1012.3
20260903200726 85 200 0.0 4.0 0.00 0.38 0.37 71 1012.2
20260903200225 86 201 1.0 4.0 0.00 0.38 0.37 70 1012.2
20260903195726 86 200 2.0 4.0 0.00 0.38 0.37 69 1012.3
20260903195224 86 196 1.0 4.0 0.00 0.38 0.37 69 1012.5
20260903194723 87 107 1.0 4.0 0.00 0.38 0.37 69 1012.4
20260903194223 87 205 1.0 4.0 0.00 0.38 0.37 68 1012.6
20260903193717 86 215 1.0 4.0 0.00 0.38 0.37 71 1012.6
20260903193443 86 217 1.0 4.0 0.00 0.38 0.37 70 1012.6
20260903192716 86 121 1.0 6.0 0.00 0.38 0.37 71 1012.6
20260903192220 86 94 1.0 6.0 0.00 0.38 0.37 70 1012.6
20260903191716 86 168 1.0 5.0 0.00 0.38 0.37 71 1012.7
20260903191437 86 93 2.0 5.0 0.00 0.38 0.37 71 1012.8
20260903190714 85 166 1.0 5.0 0.00 0.38 0.37 70 1012.9
20260903190214 85 213 0.0 7.0 0.00 0.38 0.37 73 1012.9
20260903185936 85 157 1.0 7.0 0.00 0.40 0.37 71 1012.9
20260903185214 85 199 2.0 7.0 0.00 0.43 0.37 72 1012.9
20260903184714 85 215 2.0 7.0 0.00 0.44 0.37 72 1013.0
20260903184213 85 164 2.0 5.0 0.00 0.44 0.37 72 1013.2
20260903183713 85 109 2.0 4.0 0.00 0.44 0.37 72 1013.2
20260903183441 85 57 1.0 4.0 0.00 0.44 0.37 70 1013.3
20260903182717 85 209 1.0 7.0 0.00 0.44 0.37 73 1013.4
20260903182209 85 216 1.0 7.0 0.00 0.44 0.37 71 1013.3
20260903181703 85 124 2.0 11.0 0.00 0.44 0.37 72 1013.3
20260903181200 85 222 2.0 11.0 0.00 0.44 0.37 70 1013.3
20260903180643 85 38 1.0 6.0 0.00 0.44 0.37 72 1013.4
20260903180347 85 214 1.0 6.0 0.00 0.44 0.37 72 1013.3
20260903180231 85 220 1.0 6.0 0.00 0.44 0.37 72 1013.5
20260903175135 85 47 1.0 6.0 0.00 0.44 0.37 71 1013.4
20260903174635 85 202 1.0 4.0 0.00 0.44 0.37 73 1013.4
20260903174138 85 135 1.0 4.0 0.00 0.44 0.37 73 1013.4
20260903173638 84 61 1.0 4.0 0.00 0.44 0.37 75 1013.5
20260903173359 84 79 1.0 3.0 0.00 0.44 0.37 75 1013.6
20260903172637 84 209 1.0 3.0 0.00 0.44 0.37 73 1013.7
20260903172146 83 185 1.0 11.0 0.00 0.44 0.37 75 1013.8
20260903171635 83 38 1.0 11.0 0.00 0.44 0.37 74 1014.0
20260903171133 83 199 2.0 11.0 0.00 0.44 0.37 75 1014.2
20260903170631 82 208 2.0 11.0 0.00 0.44 0.37 75 1014.2
20260903170132 82 69 1.0 6.0 0.00 0.44 0.37 77 1014.2
20260903165633 82 225 1.0 6.0 0.00 0.44 0.37 77 1014.2
20260903165130 81 207 1.0 6.0 0.00 0.44 0.37 81 1014.3
20260903164631 81 54 2.0 6.0 0.00 0.44 0.37 77 1014.3
20260903164129 80 217 1.0 6.0 0.00 0.44 0.37 78 1014.3
20260903163629 80 355 1.0 6.0 0.00 0.44 0.37 79 1014.4
20260903163131 80 210 1.0 5.0 0.00 0.44 0.37 79 1014.5
20260903162832 80 217 0.0 5.0 0.00 0.44 0.37 79 1014.5
20260903162725 80 203 1.0 5.0 0.00 0.44 0.37 80 1014.4
20260903161903 80 217 1.0 5.0 0.00 0.44 0.37 79 1014.6
20260903161126 80 196 1.0 6.0 0.00 0.44 0.37 79 1014.5
20260903160638 80 180 1.0 6.0 0.00 0.44 0.37 79 1014.5
20260903160349 80 96 1.0 6.0 0.00 0.44 0.37 79 1014.6
20260903155627 80 217 1.0 6.0 0.00 0.44 0.37 79 1014.7
20260903155127 80 51 1.0 5.0 0.00 0.44 0.37 81 1014.7
20260903154627 79 68 1.0 5.0 0.00 0.44 0.37 82 1014.7
20260903154127 78 107 1.0 7.0 0.00 0.44 0.37 82 1014.8
20260903154117 78 161 2.0 7.0 0.00 0.44 0.37 81 1015.0
20260903153125 78 223 2.0 7.0 0.00 0.44 0.37 81 1015.1
20260903152626 78 65 1.0 7.0 0.00 0.44 0.37 82 1015.3
20260903152125 78 173 1.0 6.0 0.00 0.44 0.37 83 1015.3
20260903151625 78 87 1.0 5.0 0.00 0.44 0.37 84 1015.3
20260903151125 78 47 1.0 5.0 0.00 0.44 0.37 85 1015.2
20260903150626 78 190 1.0 4.0 0.00 0.44 0.37 85 1015.1
20260903150116 77 57 1.0 4.0 0.00 0.44 0.37 86 1015.0
20260903145616 77 59 1.0 4.0 0.00 0.44 0.37 88 1015.0
20260903145117 76 58 1.0 4.0 0.00 0.44 0.37 87 1015.0
20260903144616 76 130 0.0 4.0 0.00 0.44 0.37 88 1015.1
20260903144116 76 133 0.0 4.0 0.00 0.44 0.37 89 1015.0
20260903143613 75 115 0.0 4.0 0.00 0.44 0.37 90 1015.0
20260903143114 75 107 0.0 3.0 0.00 0.44 0.37 93 1015.2
20260903142612 74 76 0.0 3.0 0.00 0.44 0.37 94 1015.2
20260903142109 74 192 0.0 3.0 0.00 0.44 0.37 95 1015.1
20260903141607 73 165 0.0 4.0 0.00 0.44 0.37 96 1015.1
20260903141107 73 164 0.0 4.0 0.00 0.44 0.37 96 1015.0
20260903140608 72 165 1.0 4.0 0.00 0.44 0.37 96 1015.0
20260903140110 72 190 1.0 4.0 0.00 0.44 0.37 97 1015.1
20260903135603 72 173 1.0 4.0 0.00 0.44 0.37 98 1015.2
20260903135058 72 194 1.0 4.0 0.00 0.44 0.37 98 1015.2
20260903134548 72 113 0.0 3.0 0.00 0.44 0.37 98 1015.0
20260903134303 71 218 0.0 2.0 0.00 0.44 0.37 98 1015.1
20260903133535 71 218 0.0 2.0 0.00 0.44 0.37 98 1015.3
20260903133025 71 218 0.0 2.0 0.00 0.44 0.37 98 1015.4
20260903132520 70 218 0.0 2.0 0.00 0.45 0.37 98 1015.4
20260903132013 70 218 0.0 2.0 0.00 0.45 0.37 98 1015.2
20260903131503 70 218 0.0 0.0 0.00 0.45 0.37 98 1015.3
20260903130957 70 218 0.0 0.0 0.00 0.45 0.37 98 1015.3
20260903130717 70 218 0.0 0.0 0.00 0.45 0.37 98 1015.3
20260903125941 70 218 0.0 0.0 0.00 0.45 0.37 98 1015.0
20260903125435 69 218 0.0 0.0 0.00 0.45 0.37 98 1015.2
20260903124929 69 218 0.0 0.0 0.00 0.45 0.37 98 1015.2
20260903124419 69 218 0.0 0.0 0.00 0.45 0.37 98 1015.3
20260903123913 69 218 0.0 0.0 0.00 0.45 0.37 98 1015.1
20260903123633 69 218 0.0 1.0 0.00 0.45 0.37 98 1015.1
20260903123135 69 218 0.0 1.0 0.01 0.45 0.37 98 1015.2
20260903122614 69 218 0.0 1.0 0.01 0.45 0.37 98 1015.2
20260903121858 68 218 0.0 1.0 0.01 0.45 0.37 98 1015.2
20260903121335 68 218 0.0 1.0 0.01 0.45 0.37 98 1015.2
20260903121050 68 218 0.0 0.0 0.01 0.45 0.37 98 1015.4
20260903120323 68 218 0.0 0.0 0.01 0.45 0.37 98 1015.2
20260903115813 68 218 0.0 0.0 0.01 0.45 0.37 98 1015.1
20260903115306 68 218 0.0 0.0 0.01 0.45 0.37 98 1015.2
20260903114800 68 218 0.0 0.0 0.01 0.45 0.37 98 1015.0
20260903114251 68 218 0.0 3.0 0.01 0.45 0.37 98 1015.0
20260903113745 68 218 0.0 3.0 0.01 0.45 0.37 98 1015.4
20260903113240 68 218 0.0 3.0 0.00 0.44 0.36 98 1015.3
20260903112734 67 218 0.0 3.0 0.00 0.44 0.36 98 1015.1
20260903112224 67 217 0.0 4.0 0.00 0.44 0.36 98 1015.4
20260903111730 67 217 0.0 4.0 0.00 0.44 0.36 98 1015.3
20260903111437 67 219 0.0 4.0 0.00 0.44 0.36 98 1015.3
20260903110920 67 217 0.0 4.0 0.00 0.44 0.36 98 1015.3
20260903110155 67 197 0.0 2.0 0.00 0.44 0.36 98 1015.4
20260903105646 67 197 0.0 2.0 0.00 0.44 0.36 98 1015.5
20260903105140 67 197 0.0 2.0 0.00 0.44 0.36 98 1015.5
20260903104633 67 198 0.0 0.0 0.00 0.44 0.36 98 1015.6
20260903104123 67 198 0.0 0.0 0.00 0.45 0.36 98 1015.4
20260903103618 67 198 0.0 0.0 0.00 0.45 0.36 98 1015.4
20260903103112 67 198 0.0 2.0 0.00 0.45 0.36 98 1015.5
20260903102601 67 198 0.0 2.0 0.00 0.45 0.36 98 1015.5
20260903102315 67 198 0.0 2.0 0.00 0.45 0.36 98 1015.6
20260903101549 67 198 0.0 2.0 0.00 0.45 0.36 98 1015.6
20260903101039 67 193 0.0 3.0 0.00 0.45 0.36 98 1015.5
20260903100533 67 193 0.0 3.0 0.00 0.45 0.36 98 1015.4
20260903100027 67 193 0.0 3.0 0.00 0.45 0.36 98 1015.3
20260903095515 67 193 0.0 3.0 0.01 0.45 0.36 98 1015.1
20260903095012 67 180 0.0 2.0 0.01 0.45 0.36 98 1015.2
20260903094507 67 180 0.0 2.0 0.01 0.45 0.36 98 1015.0
20260903093955 68 180 0.0 2.0 0.02 0.45 0.36 97 1014.8
20260903093448 68 159 0.0 0.0 0.02 0.45 0.36 97 1015.0
20260903092943 68 159 0.0 0.0 0.02 0.45 0.36 97 1015.2
20260903092433 68 159 0.0 2.0 0.02 0.45 0.36 97 1015.3
20260903091927 68 159 0.0 2.0 0.02 0.45 0.36 98 1015.3
20260903091434 68 159 0.0 2.0 0.03 0.45 0.36 98 1015.2
20260903090916 68 159 0.0 4.0 0.03 0.45 0.36 98 1014.9
20260903090413 68 159 0.0 4.0 0.04 0.45 0.36 98 1015.4
20260903085913 68 59 0.0 0.0 0.04 0.45 0.36 98 1015.6
20260903085900 68 59 0.0 0.0 0.03 0.44 0.35 98 1015.8
20260903084907 68 59 0.0 0.0 0.03 0.44 0.35 98 1015.4
20260903084406 68 59 0.0 5.0 0.03 0.44 0.35 98 1015.3
20260903083903 68 59 1.0 5.0 0.02 0.43 0.34 98 1015.1
20260903083403 68 59 1.0 5.0 0.02 0.43 0.34 98 1015.1
20260903082902 68 61 2.0 6.0 0.02 0.43 0.34 98 1014.8
20260903082400 68 34 1.0 6.0 0.03 0.43 0.34 98 1014.3
20260903081902 68 30 1.0 6.0 0.03 0.44 0.34 98 1014.4
20260903081402 68 233 0.0 6.0 0.02 0.43 0.33 98 1014.5
20260903081125 67 80 0.0 0.0 0.02 0.43 0.33 98 1015.4
20260903080401 67 81 0.0 0.0 0.01 0.42 0.32 98 1015.8
20260903075858 67 81 0.0 0.0 0.01 0.42 0.32 98 1016.1
20260903075400 67 81 0.0 0.0 0.02 0.42 0.32 98 1016.3
20260903074854 67 81 0.0 0.0 0.02 0.42 0.32 98 1016.2
20260903074348 67 81 0.0 0.0 0.02 0.42 0.32 98 1016.2
20260903073840 67 80 0.0 1.0 0.02 0.42 0.32 98 1016.2
20260903073340 67 80 0.0 1.0 0.03 0.42 0.32 97 1016.1
20260903072839 67 80 0.0 0.0 0.04 0.42 0.32 97 1016.1
20260903072341 67 80 0.0 0.0 0.04 0.41 0.32 98 1015.9
20260903071837 67 80 0.0 0.0 0.05 0.41 0.31 97 1015.8
20260903071336 67 80 0.0 3.0 0.06 0.41 0.31 97 1015.7
20260903070838 67 80 0.0 3.0 0.06 0.41 0.31 97 1015.7
20260903070337 67 80 0.0 3.0 0.07 0.41 0.31 97 1015.5
20260903065836 67 80 0.0 3.0 0.07 0.41 0.31 97 1015.5
20260903065559 67 87 0.0 2.0 0.07 0.40 0.30 97 1015.5
20260903064831 67 86 0.0 0.0 0.07 0.40 0.30 97 1015.8
20260903064331 67 86 0.0 0.0 0.07 0.40 0.30 97 1016.2
20260903064103 67 86 0.0 0.0 0.07 0.40 0.30 97 1016.4
20260903063547 67 86 0.0 0.0 0.06 0.39 0.29 97 1016.4
20260903062828 67 86 0.0 0.0 0.05 0.38 0.28 97 1016.6
20260903062327 67 86 0.0 0.0 0.05 0.37 0.27 97 1016.7
20260903062040 67 86 0.0 0.0 0.04 0.36 0.26 97 1016.7
20260903061538 67 86 0.0 0.0 0.04 0.35 0.25 97 1016.8
20260903060817 67 86 0.0 0.0 0.04 0.35 0.25 97 1016.9
20260903060316 67 86 0.0 0.0 0.04 0.34 0.24 97 1017.1
20260903055814 67 86 0.0 0.0 0.05 0.34 0.24 97 1017.1
20260903055313 67 86 0.0 0.0 0.05 0.33 0.23 97 1017.2
20260903054811 67 86 0.0 0.0 0.06 0.33 0.23 97 1017.3
20260903054310 67 86 0.0 0.0 0.07 0.33 0.23 97 1017.4
20260903053808 67 86 0.0 0.0 0.07 0.33 0.23 97 1017.5
20260903053308 67 86 0.0 1.0 0.08 0.33 0.23 97 1017.5
20260903052809 67 86 0.0 1.0 0.13 0.33 0.23 97 1017.6
20260903052308 67 86 0.0 2.0 0.20 0.32 0.22 97 1017.4
20260903051808 67 86 1.0 2.0 0.21 0.32 0.22 97 1017.1
20260903051307 67 86 0.0 2.0 0.21 0.31 0.22 97 1017.1
20260903050805 67 86 0.0 2.0 0.21 0.31 0.21 97 1017.4
20260903050317 67 86 0.0 2.0 0.20 0.30 0.20 97 1017.8
20260903050034 67 86 0.0 1.0 0.19 0.29 0.19 97 1018.2
20260903045306 67 86 0.0 1.0 0.18 0.28 0.18 97 1018.6
20260903044805 66 86 0.0 1.0 0.17 0.27 0.17 97 1019.1
20260903044305 66 86 0.0 1.0 0.16 0.26 0.16 97 1019.3
20260903043806 66 86 0.0 1.0 0.16 0.26 0.16 97 1019.1
20260903043306 66 86 0.0 2.0 0.15 0.25 0.15 97 1019.0
20260903042804 66 86 0.0 2.0 0.10 0.20 0.10 97 1019.3
20260903042306 66 86 0.0 1.0 0.02 0.12 0.02 97 1020.1
20260903041807 66 86 0.0 0.0 0.01 0.11 0.01 97 1019.5
20260903041307 66 86 0.0 1.0 0.00 0.10 0.00 97 1019.2
20260903040806 66 86 0.0 1.0 0.00 0.10 0.00 97 1019.2
20260903040307 66 86 0.0 0.0 0.00 0.10 0.00 97 1019.2
20260903035809 66 86 0.0 0.0 0.00 0.10 0.10 97 1019.2
20260903035307 66 86 0.0 0.0 0.00 0.10 0.10 97 1019.2
20260903034803 66 86 0.0 0.0 0.00 0.10 0.10 97 1019.1
20260903034316 66 86 0.0 0.0 0.00 0.10 0.10 97 1018.9
20260903033816 66 86 0.0 0.0 0.00 0.10 0.10 97 1018.5
20260903033304 66 86 0.0 0.0 0.00 0.10 0.10 97 1018.5
20260903033025 66 86 0.0 1.0 0.00 0.10 0.10 97 1018.6
20260903032740 66 86 0.0 1.0 0.00 0.10 0.10 97 1018.7
20260903031801 66 86 0.0 1.0 0.00 0.10 0.10 97 1018.9
20260903031302 66 86 0.0 1.0 0.00 0.10 0.10 97 1018.6
20260903030800 66 86 0.0 1.0 0.00 0.10 0.10 97 1018.9
20260903030301 67 86 0.0 1.0 0.00 0.10 0.10 97 1018.8
20260903030026 67 86 0.0 1.0 0.00 0.10 0.10 97 1018.9
20260903025526 67 86 0.0 1.0 0.00 0.10 0.10 97 1018.7
20260903025249 67 86 0.0 1.0 0.00 0.10 0.10 97 1018.7
20260903024255 67 86 0.0 1.0 0.00 0.10 0.10 97 1019.0
20260903023756 67 86 0.0 0.0 0.00 0.10 0.10 97 1018.7
20260903023254 67 86 0.0 0.0 0.00 0.10 0.10 97 1018.7
20260903022754 67 86 0.0 0.0 0.00 0.10 0.10 97 1018.7
20260903022250 67 86 0.0 0.0 0.00 0.10 0.10 97 1018.6
20260903021751 67 86 0.0 0.0 0.00 0.10 0.10 97 1018.9
20260903021250 67 86 0.0 0.0 0.00 0.10 0.10 97 1019.3
20260903020802 67 86 0.0 0.0 0.00 0.10 0.10 97 1019.4
20260903020246 67 86 0.0 0.0 0.00 0.10 0.10 97 1019.3
20260903015741 67 86 0.0 0.0 0.00 0.10 0.10 97 1019.3
20260903015237 67 86 0.0 0.0 0.00 0.10 0.10 97 1019.2
20260903014738 67 86 0.0 0.0 0.00 0.10 0.10 97 1019.2